Export;EXP-2023-01 (20230706 22:22);;;StationsCode;NL01487;NL01488;NL01491;NL10633;NL10644;NL10741;NL49007;NL49012;NL49014;NL49551;NL49553;NL49561
Periode;20150101 00:00 - 20160101 00:00;;;BeheerderMeetStation;DCMR;DCMR;DCMR;RIVM;RIVM;RIVM;GGD A'dam;GGD A'dam;GGD A'dam;GGD A'dam;GGD A'dam;GGD A'dam
Bron;https://data.rivm.nl/data/luchtmeetnet;;;StationsNaam;Rotterdam Zuid-Pleinweg;Rotterdam Zuid-Zwartewaalstraat;Rotterdam-Oost Sidelinge A13;Zegveld-Oude Meije;Cabauw-Wielsekade;Nijmegen-Graafseweg;Amsterdam-Einsteinweg;Amsterdam-Van Diemenstraat;Amsterdam-Vondelpark;IJmuiden-Kanaaldijk;Wijk aan Zee-Burgemeester Rothestraat;Badhoevedorp-Sloterweg
Beschrijving data;https://data.rivm.nl/data/luchtmeetnet/readme.pdf;;;Latitude,Longitude;(51.891147,4.48069);(51.893617,4.487528);(51.938472,4.430692);(52.13795,4.83819);(51.974489,4.923301);(51.841372,5.857777);(52.381331,4.845233);(52.389983,4.887811);(52.359714,4.866208);(52.463039,4.601842);(52.493992,4.601986);(52.334003,4.774006)
Accreditatienummer;https://www.rva.nl/alle-geaccrediteerden/;;;StationsGebied;stad;stad;stad;regionaal;regionaal;stad;stad;stad;stad;stad;stad;stad
;;;;StationsType;verkeer;achtergrond;verkeer;achtergrond;achtergrond;verkeer;verkeer;verkeer;achtergrond;industrie;industrie;achtergrond
;;;;Meetprincipe;Infrarood gasfiltercorrelatie (IR-GFC);Infrarood gasfiltercorrelatie (IR-GFC);Infrarood gasfiltercorrelatie (IR-GFC);Niet-dispersieve infrarood (NDIR);Niet-dispersieve infrarood (NDIR);Niet-dispersieve infrarood (NDIR);Infrarood gasfiltercorrelatie (IR-GFC);Infrarood gasfiltercorrelatie (IR-GFC);Infrarood gasfiltercorrelatie (IR-GFC);Infrarood gasfiltercorrelatie (IR-GFC);Infrarood gasfiltercorrelatie (IR-GFC);Infrarood gasfiltercorrelatie (IR-GFC)
;;;;Meetopstelling;Teledyne API T300 gas filter correlation CO analyser;Teledyne API T300 gas filter correlation CO analyser;Thermo model 48w CO analyser;Thermo model 48w CO analyser              ;Thermo model 48w CO analyser              ;Thermo model 48w CO analyser              ;Teledyne API T300 gas filter correlation CO analyser;Teledyne API T300 gas filter correlation CO analyser;Teledyne API T300 gas filter correlation CO analyser;Teledyne API T300 gas filter correlation CO analyser;Teledyne API T300 gas filter correlation CO analyser;Teledyne API T300 gas filter correlation CO analyser
;;;;Accreditatienummer;L520;L520;L520;nvt;nvt;nvt;L426;L426;L426;L426;L426;L426
Component;Bep.periode;Eenheid; Begindatumtijd;Einddatumtijd;NL01487;NL01488;NL01491;NL10633;NL10644;NL10741;NL49007;NL49012;NL49014;NL49551;NL49553;NL49561
CO;uur;�g/m�;20150101 00:00;20150101 01:00;623;608;323;321.96;232.83;654.42;359.8;449.8;332.7;335.1;285.6;337.4
CO;uur;�g/m�;20150101 01:00;20150101 02:00;671;607;388;331.87;237.33;637.16;397.9;484.7;383.9;369.9;286.4;397.9
CO;uur;�g/m�;20150101 02:00;20150101 03:00;598;565;342;323.44;222.65;556.05;446.1;540.3;451.7;309.1;260.1;430.1
CO;uur;�g/m�;20150101 03:00;20150101 04:00;689;594;362;320.07;424.28;527.16;408.5;513.3;404.1;355.3;298.7;408.6
CO;uur;�g/m�;20150101 04:00;20150101 05:00;655;598;399;363.2;372.99;413.3;342.5;410.1;360.5;292.8;220.9;359.7
CO;uur;�g/m�;20150101 05:00;20150101 06:00;651;569;335;383.43;356.9;371.75;323.8;367.4;324.8;293.2;225.8;348.8
CO;uur;�g/m�;20150101 06:00;20150101 07:00;577;489;328;371.73;283.49;384.1;327.5;389.9;352.1;345.3;1178.5;364.7
CO;uur;�g/m�;20150101 07:00;20150101 08:00;524;436;308;391.36;249;438.41;319.2;367.7;333.3;336.3;654.3;371
CO;uur;�g/m�;20150101 08:00;20150101 09:00;423;416;315;363.9;270.11;377.71;314.8;327.1;302.6;331.8;273.6;341.7
CO;uur;�g/m�;20150101 09:00;20150101 10:00;417;417;347;371.73;237.83;229.93;291.5;328.9;298.1;312.9;296.3;340
CO;uur;�g/m�;20150101 10:00;20150101 11:00;357;381;318;387.7;224.36;339.09;305.8;328.1;326.3;289.9;374.5;373.1
CO;uur;�g/m�;20150101 11:00;20150101 12:00;373;398;321;374.51;229.69;340.77;304.4;372.4;325.9;281.1;313.8;347.9
CO;uur;�g/m�;20150101 12:00;20150101 13:00;364;349;311;373.32;235.02;198.12;299.4;353.6;310.7;322.4;348.4;314.1
CO;uur;�g/m�;20150101 13:00;20150101 14:00;348;347;325;357.35;237.23;250.76;294;348.6;300.5;320.1;282.6;309.2
CO;uur;�g/m�;20150101 14:00;20150101 15:00;493;367;337;303.41;226.07;216.33;311.8;340.1;294.5;330;619.4;316.8
CO;uur;�g/m�;20150101 15:00;20150101 16:00;578;391;342;315.51;188.66;239.04;;401.8;309.3;330.1;286.5;335.8
CO;uur;�g/m�;20150101 16:00;20150101 17:00;586;366;362;290.92;187.75;294.09;337.4;369.8;299.7;302.6;578.9;307.8
CO;uur;�g/m�;20150101 17:00;20150101 18:00;492;350;329;284.67;196;287.71;326.5;399.4;314.7;307;783.4;336
CO;uur;�g/m�;20150101 18:00;20150101 19:00;438;380;331;294.19;216.21;239.88;306.5;345;309.9;304.4;681.2;307.3
CO;uur;�g/m�;20150101 19:00;20150101 20:00;500;414;377;343.67;237.33;214.65;297.9;369.4;315.3;322.9;664.5;293.1
CO;uur;�g/m�;20150101 20:00;20150101 21:00;452;431;416;372.33;233.11;202.3;337.2;385.9;350.3;316.2;585.5;334.1
CO;uur;�g/m�;20150101 21:00;20150101 22:00;419;416;405;366.18;231.3;210.05;368.1;402;380.7;333.1;626.8;383
CO;uur;�g/m�;20150101 22:00;20150101 23:00;377;384;373;343.08;217.42;192.99;361;377.7;367.1;289.4;802;341.4
CO;uur;�g/m�;20150101 23:00;20150102 00:00;342;365;333;325.89;202.33;179.59;312.7;343;330.3;308.8;459.7;314.1
CO;uur;�g/m�;20150102 00:00;20150102 01:00;337;358;301;222.92;150.02;217.93;271.9;299.5;302.6;271.9;351.3;273.3
CO;uur;�g/m�;20150102 01:00;20150102 02:00;320;364;290;215.07;140.39;215.38;243.4;271.7;271.9;302.1;272.1;246.4
CO;uur;�g/m�;20150102 02:00;20150102 03:00;306;369;247;191.17;141.79;305.29;206.2;257.6;259;287.6;259.6;236.7
CO;uur;�g/m�;20150102 03:00;20150102 04:00;251;338;247;181.65;136.67;317.85;196.9;245.8;258;298.6;257.3;234.3
CO;uur;�g/m�;20150102 04:00;20150102 05:00;272;345;246;148.24;143.2;212.03;193.1;251.7;265.6;302.6;259.3;239.3
CO;uur;�g/m�;20150102 05:00;20150102 06:00;267;351;242;139.41;140.59;235.27;191.2;245.6;257.6;295.2;260;245.8
CO;uur;�g/m�;20150102 06:00;20150102 07:00;289;357;263;129.89;124.09;255.37;177.3;231.9;261;285.7;228.4;224.7
CO;uur;�g/m�;20150102 07:00;20150102 08:00;290;349;272;92.71;122.08;299.01;165.2;206.2;265.2;289.7;192.5;199.6
CO;uur;�g/m�;20150102 08:00;20150102 09:00;394;324;218;71.79;122.28;328.21;145.6;196.6;246.8;237.9;180.6;173
CO;uur;�g/m�;20150102 09:00;20150102 10:00;358;319;235;82.79;80.95;349.24;152.2;186.7;246.5;224.8;189.3;168.4
CO;uur;�g/m�;20150102 10:00;20150102 11:00;391;297;244;90.53;92.22;358.24;154.2;194.9;265.3;236.6;183.3;177.6
CO;uur;�g/m�;20150102 11:00;20150102 12:00;414;284;313;98.06;90.51;349.98;152.4;186.4;260;230.9;198.7;174.9
CO;uur;�g/m�;20150102 12:00;20150102 13:00;408;278;247;106.59;86.38;369.76;160.1;190;260.8;208.9;185.3;161.3
CO;uur;�g/m�;20150102 13:00;20150102 14:00;461;269;257;108.48;84.97;356.57;168;206.3;264.9;236.9;212;168.4
CO;uur;�g/m�;20150102 14:00;20150102 15:00;434;282;231;120.87;87.69;296.6;168.8;226.3;270.8;235.6;194.3;182.1
CO;uur;�g/m�;20150102 15:00;20150102 16:00;491;279;234;113.83;89.8;331.14;182.7;224;272.9;255.7;181.2;178.5
CO;uur;�g/m�;20150102 16:00;20150102 17:00;544;292;300;116.71;89;345.16;187.8;232.7;277.5;227.1;181.7;213.6
CO;uur;�g/m�;20150102 17:00;20150102 18:00;535;283;285;125.33;93.22;384.83;178.8;211.6;263;232.3;188.1;188
CO;uur;�g/m�;20150102 18:00;20150102 19:00;485;292;260;130.98;98.95;328.84;176.1;208.7;262;216.4;178.7;191.2
CO;uur;�g/m�;20150102 19:00;20150102 20:00;484;294;233;138.32;97.85;299.74;176.4;200.3;270.2;243;181.2;187.7
CO;uur;�g/m�;20150102 20:00;20150102 21:00;438;294;224;143.97;101.57;305.18;173.4;189.5;275.1;225.1;183.2;205.6
CO;uur;�g/m�;20150102 21:00;20150102 22:00;420;307;220;138.22;103.78;281.74;179;200.2;265.9;276.2;184.1;200.3
CO;uur;�g/m�;20150102 22:00;20150102 23:00;378;289;227;133.36;96.54;349.77;190.8;204.2;269.5;214.2;179.1;196.9
CO;uur;�g/m�;20150102 23:00;20150103 00:00;373;298;227;134.06;97.75;299.32;180;185.9;263;221.7;184;204.1
CO;uur;�g/m�;20150103 00:00;20150103 01:00;321;291;202;127.51;131.44;255.16;173.3;174.8;251.5;212.4;187.2;201
CO;uur;�g/m�;20150103 01:00;20150103 02:00;319;299;;117.92;130.93;212.87;172.7;169.5;183.2;239.2;189.8;191.5
CO;uur;�g/m�;20150103 02:00;20150103 03:00;283;323;;120.2;132.34;173.63;154.2;181.7;182.2;228.7;186.2;197.8
CO;uur;�g/m�;20150103 03:00;20150103 04:00;243;309;;126.44;129.83;173.63;156.4;181.3;168.3;230.9;183.5;196.4
CO;uur;�g/m�;20150103 04:00;20150103 05:00;289;320;;134.95;137.67;216.01;149.6;185;164.1;222.4;183.9;201.7
CO;uur;�g/m�;20150103 05:00;20150103 06:00;314;351;;134.65;186.95;275.88;165.3;211.4;181.2;238.8;191.2;226.8
CO;uur;�g/m�;20150103 06:00;20150103 07:00;361;403;;165.45;205.55;294.93;196.3;242;190;261.5;191.1;244.4
CO;uur;�g/m�;20150103 07:00;20150103 08:00;363;435;345;199.61;305.21;271.28;185.8;265.1;216.1;260;200.1;250.8
CO;uur;�g/m�;20150103 08:00;20150103 09:00;391;436;365;176.93;250.2;246.37;240.1;296.9;211.8;239.3;194.5;302.1
CO;uur;�g/m�;20150103 09:00;20150103 10:00;429;401;409;136.44;219.43;271.17;165;211.7;179.6;269.7;192.4;203.9
CO;uur;�g/m�;20150103 10:00;20150103 11:00;424;348;384;237.73;181.22;331.45;227.3;300.2;210.3;284.7;194.5;252.2
CO;uur;�g/m�;20150103 11:00;20150103 12:00;500;348;400;165.45;147.83;297.54;308.7;346.1;232.8;280.8;197.8;342.2
CO;uur;�g/m�;20150103 12:00;20150103 13:00;527;387;386;152.38;181.52;338.78;282.6;361;209.2;285;209;301.2
CO;uur;�g/m�;20150103 13:00;20150103 14:00;690;396;450;169.41;156.68;349.66;288.7;348.3;220;286.4;214.6;288.3
CO;uur;�g/m�;20150103 14:00;20150103 15:00;921;426;436;186.64;171.06;318.27;305.1;371.1;217.4;308.3;223.1;289.1
CO;uur;�g/m�;20150103 15:00;20150103 16:00;1085;434;450;185.84;177.39;398.96;349.7;409.3;248.7;329.8;227.8;345.4
CO;uur;�g/m�;20150103 16:00;20150103 17:00;878;457;479;220.2;190.17;429.1;448.8;498.5;263.9;304.8;241.9;360.8
CO;uur;�g/m�;20150103 17:00;20150103 18:00;1314;494;616;216.83;231.9;428.78;393.8;533.1;329.9;291.4;189.1;413.7
CO;uur;�g/m�;20150103 18:00;20150103 19:00;1150;618;588;247.03;292.84;443.02;438.2;501.6;373.8;262.1;181.9;404.4
CO;uur;�g/m�;20150103 19:00;20150103 20:00;804;569;612;285.84;306.92;405.65;442.8;435.7;425.3;268;197.8;332.6
CO;uur;�g/m�;20150103 20:00;20150103 21:00;707;445;538;274.06;365.14;391.73;198.7;185.4;358;258.1;183;264
CO;uur;�g/m�;20150103 21:00;20150103 22:00;480;375;371;114.06;280.47;401.36;260.6;184.4;293.6;304.5;168.1;356.5
CO;uur;�g/m�;20150103 22:00;20150103 23:00;377;347;314;114.46;232.1;447.41;231.7;170.8;257.7;271.4;160.9;248.8
CO;uur;�g/m�;20150103 23:00;20150104 00:00;313;314;286;108.91;143.87;484.5;278.1;165.4;253.7;236.6;162.6;273
CO;uur;�g/m�;20150104 00:00;20150104 01:00;309;298;292;190.45;142.53;520.95;194;159;222.3;273.2;157.3;224.3
CO;uur;�g/m�;20150104 01:00;20150104 02:00;325;307;288;176.34;140.17;388.18;174.6;150.1;182.8;237.6;159.3;286.4
CO;uur;�g/m�;20150104 02:00;20150104 03:00;283;283;287;180.2;137.16;303.61;172.3;151.9;177.2;213.4;177.1;183.1
CO;uur;�g/m�;20150104 03:00;20150104 04:00;237;285;275;179.01;130.33;245.95;189.7;145.2;173.6;288.4;172.9;189.7
CO;uur;�g/m�;20150104 04:00;20150104 05:00;298;284;333;187.82;127.92;221.14;163.1;146.3;165.5;200.9;162.8;240.4
CO;uur;�g/m�;20150104 05:00;20150104 06:00;385;288;430;185.84;128.43;176.87;167.6;185.7;165.6;201.8;168.6;188.4
CO;uur;�g/m�;20150104 06:00;20150104 07:00;246;283;473;186.54;128.02;243.85;159.2;189.7;191.7;243.7;164.1;209.1
CO;uur;�g/m�;20150104 07:00;20150104 08:00;423;327;659;229.7;132.24;362.64;167.1;180.3;189.6;210.8;170.9;241.8
CO;uur;�g/m�;20150104 08:00;20150104 09:00;602;383;476;193.96;141.58;202.09;187.8;191.3;201.7;212.1;164.7;200.1
CO;uur;�g/m�;20150104 09:00;20150104 10:00;433;357;521;201.49;183.65;279.23;226;201.3;250.7;220.7;170.4;215
CO;uur;�g/m�;20150104 10:00;20150104 11:00;536;351;348;207.33;205.24;407.33;181.1;210.4;304.9;200.9;166.5;226.5
CO;uur;�g/m�;20150104 11:00;20150104 12:00;643;383;352;228.91;221.51;479.75;160.8;215.6;258.4;253.8;185.5;229.8
CO;uur;�g/m�;20150104 12:00;20150104 13:00;718;402;344;187.03;165.78;465.94;159.3;206.7;269.9;217.9;167.4;223.5
CO;uur;�g/m�;20150104 13:00;20150104 14:00;822;360;328;185.35;164.47;386.08;151.3;207.3;246.9;279.4;165.8;209.3
CO;uur;�g/m�;20150104 14:00;20150104 15:00;549;310;287;201.68;164.37;359.4;193.8;220.9;279;308.9;186.7;207.6
CO;uur;�g/m�;20150104 15:00;20150104 16:00;823;369;324;197.53;159.45;381.79;227.3;267.3;251.8;269.8;211.2;232.2
CO;uur;�g/m�;20150104 16:00;20150104 17:00;1158;485;470;203.37;189.88;508.95;268.7;312.6;294.3;299.9;203.2;290.3
CO;uur;�g/m�;20150104 17:00;20150104 18:00;819;539;532;226.44;229.34;548.83;325.8;329;321.5;294.9;195;315.7
CO;uur;�g/m�;20150104 18:00;20150104 19:00;793;541;453;263.57;278.04;574.89;337.8;348.2;347.1;336.3;227.3;350.3
CO;uur;�g/m�;20150104 19:00;20150104 20:00;756;613;518;341.09;299.62;505.92;397.3;781.1;305;270.3;327.1;362.1
CO;uur;�g/m�;20150104 20:00;20150104 21:00;680;573;664;421.88;282.55;614.97;540.9;701.2;369.1;233.4;324.7;425.7
CO;uur;�g/m�;20150104 21:00;20150104 22:00;499;480;571;448.82;249.02;816.23;606.6;841.3;415.1;224.2;224;508.5
CO;uur;�g/m�;20150104 22:00;20150104 23:00;534;448;402;494.76;241.99;619.26;488.3;729.6;439.1;236.5;206.8;429.8
CO;uur;�g/m�;20150104 23:00;20150105 00:00;351;409;384;429.44;211.4;353.6;366.2;575.5;372.2;236.7;195.5;401.2
CO;uur;�g/m�;20150105 00:00;20150105 01:00;342;411;434;299.13;139.16;305.11;353.3;416;333.1;240.1;202.6;364.7
CO;uur;�g/m�;20150105 01:00;20150105 02:00;359;432;345;257.63;177.53;345.58;291.9;341.6;276.3;235;208;307.7
CO;uur;�g/m�;20150105 02:00;20150105 03:00;404;477;389;290.4;224.32;383.57;288.9;333.6;269.7;239.7;212.3;321.2
CO;uur;�g/m�;20150105 03:00;20150105 04:00;475;551;424;304.56;276.83;329.15;309;365.4;332.8;238.5;211.9;349.9
CO;uur;�g/m�;20150105 04:00;20150105 05:00;491;544;405;349.31;299.62;398.01;286.8;325.5;283.3;264.4;204.9;315.9
CO;uur;�g/m�;20150105 05:00;20150105 06:00;579;568;463;396.14;272.51;435.69;262.4;332.2;296.9;256.6;198.7;323.7
CO;uur;�g/m�;20150105 06:00;20150105 07:00;716;593;586;375.55;279.64;467.93;401;462.2;324.4;274.2;199;418.5
CO;uur;�g/m�;20150105 07:00;20150105 08:00;691;491;605;358.62;250.62;500.68;487.7;585.7;353.3;344;240;406.7
CO;uur;�g/m�;20150105 08:00;20150105 09:00;761;543;497;316.74;318.4;511.25;648;667.1;454.6;406.8;647.1;516.1
CO;uur;�g/m�;20150105 09:00;20150105 10:00;516;447;392;362.28;273.82;428.89;542.8;603.7;410.8;428.6;1320.9;477.7
CO;uur;�g/m�;20150105 10:00;20150105 11:00;443;406;366;289.11;191.44;507.59;420;466.4;341.6;448.4;1071.7;394.8
CO;uur;�g/m�;20150105 11:00;20150105 12:00;472;451;402;214.26;247.01;460.29;412.7;482.2;;454.7;830.8;364.9
CO;uur;�g/m�;20150105 12:00;20150105 13:00;;519;436;262.79;213.87;390.27;461.3;517.9;310.7;392.7;797.1;361.7
CO;uur;�g/m�;20150105 13:00;20150105 14:00;687;;503;274.66;206.85;494.93;535;515.5;319.5;385.9;493.2;388.8
CO;uur;�g/m�;20150105 14:00;20150105 15:00;834;329;583;321.39;204.34;430.25;506.6;512.2;356.2;406.5;440.4;523.5
CO;uur;�g/m�;20150105 15:00;20150105 16:00;;;537;342.28;191.99;430.25;591.3;629.8;398.2;392.6;659.2;445.7
CO;uur;�g/m�;20150105 16:00;20150105 17:00;967;552;570;368.82;210.06;434.44;638.7;727;459.9;452.5;1259.5;513.2
CO;uur;�g/m�;20150105 17:00;20150105 18:00;914;590;564;347.92;220.8;544.43;625.2;766.2;478.3;485.5;1456.9;577.2
CO;uur;�g/m�;20150105 18:00;20150105 19:00;861;553;501;332.78;205.14;520.78;594.7;686.9;482.6;502;1682.2;522.8
CO;uur;�g/m�;20150105 19:00;20150105 20:00;868;543;370;281.69;226.53;499.85;535.7;622.6;450.8;513.1;1596.1;488.3
CO;uur;�g/m�;20150105 20:00;20150105 21:00;721;544;364;231.98;254.84;338.05;;518.4;400.1;546.8;1502.3;432.3
CO;uur;�g/m�;20150105 21:00;20150105 22:00;663;509;394;250.7;213.27;374.36;424;511.8;394.8;533.1;1402.4;565.1
CO;uur;�g/m�;20150105 22:00;20150105 23:00;673;520;315;262.18;213.17;408.9;453;528.3;411.4;508.1;1238.8;424.7
CO;uur;�g/m�;20150105 23:00;20150106 00:00;530;491;326;289.11;247.95;390.31;426;520;395.9;452;1120.5;414.2
CO;uur;�g/m�;20150106 00:00;20150106 01:00;415;484;347;327.9;234.61;304.13;391.2;440.3;371.5;446.9;979.6;399
CO;uur;�g/m�;20150106 01:00;20150106 02:00;379;498;318;317.03;242.89;273.37;388.2;419.9;366.1;441.2;724.7;394.1
CO;uur;�g/m�;20150106 02:00;20150106 03:00;343;477;320;311.78;259.96;247.31;386.5;421.1;362;427.1;1073.3;392.7
CO;uur;�g/m�;20150106 03:00;20150106 04:00;353;501;328;305.45;239.38;254.53;383;393.7;348.1;409.3;528.8;380
CO;uur;�g/m�;20150106 04:00;20150106 05:00;392;485;356;327.53;227.33;250.13;343.6;361.7;339;422.8;565;367.7
CO;uur;�g/m�;20150106 05:00;20150106 06:00;643;571;387;330;250.72;242.18;404.1;399.9;344.8;390.9;532.7;367.9
CO;uur;�g/m�;20150106 06:00;20150106 07:00;753;536;479;339.01;244.5;262.48;;482;343.8;410.6;606.3;384.3
CO;uur;�g/m�;20150106 07:00;20150106 08:00;947;530;447;357.92;221.41;410.68;673.8;571.4;358;424;547.6;392.5
CO;uur;�g/m�;20150106 08:00;20150106 09:00;1178;637;485;350.8;230.14;577.61;741.8;715.3;386.8;474.4;423;414.9
CO;uur;�g/m�;20150106 09:00;20150106 10:00;865;583;483;353.77;210.86;402.93;568.9;551.3;383.3;463.4;443;404
CO;uur;�g/m�;20150106 10:00;20150106 11:00;754;581;488;325.05;216.18;279.33;492.6;499.3;366;402.5;415.7;462.7
CO;uur;�g/m�;20150106 11:00;20150106 12:00;618;538;468;346.24;217.29;322.98;478.4;479.6;336.6;411.7;429.6;402.1
CO;uur;�g/m�;20150106 12:00;20150106 13:00;500;535;484;355.25;221;411.52;454.8;517.6;343;456.9;762.8;409.2
CO;uur;�g/m�;20150106 13:00;20150106 14:00;800;690;541;399.01;267.99;409.63;526.2;647.6;376.5;425.8;1245.8;459.6
CO;uur;�g/m�;20150106 14:00;20150106 15:00;;496;400;379.01;265.58;418.42;531.9;659.3;429.7;452.3;616.4;469
CO;uur;�g/m�;20150106 15:00;20150106 16:00;814;568;460;448.22;255.64;405.66;611.1;682.3;459.1;443.9;1728.4;471.2
CO;uur;�g/m�;20150106 16:00;20150106 17:00;922;573;607;459.01;246.61;582.11;656.8;695.4;496;531.7;1154.8;535.3
CO;uur;�g/m�;20150106 17:00;20150106 18:00;918;545;527;437.23;252.03;563.58;682.7;717.2;482.9;470;916.5;519
CO;uur;�g/m�;20150106 18:00;20150106 19:00;909;563;484;386.34;245.4;461.54;;713.9;504.9;481.9;1068.2;510.4
CO;uur;�g/m�;20150106 19:00;20150106 20:00;777;580;496;386.44;254.94;408.06;;575.8;432;511.2;1574.7;483.3
CO;uur;�g/m�;20150106 20:00;20150106 21:00;738;569;465;413.86;261.57;392.26;;556.2;432.9;372.8;341.1;481
CO;uur;�g/m�;20150106 21:00;20150106 22:00;578;492;318;425.15;259.16;361.38;491;629.5;490.3;245.5;198.8;452.3
CO;uur;�g/m�;20150106 22:00;20150106 23:00;479;379;237;264.36;250.42;434.02;303;287;367.8;233.7;184.6;265.2
CO;uur;�g/m�;20150106 23:00;20150107 00:00;418;381;230;170.04;128.39;485.75;267.5;207.3;312.8;238.7;176.7;264.7
CO;uur;�g/m�;20150107 00:00;20150107 01:00;398;361;229;187.8;124.98;312.57;223;203.3;315;205.4;176.8;228.1
CO;uur;�g/m�;20150107 01:00;20150107 02:00;405;375;216;196.55;129.03;279.21;218.2;209.2;266.8;193.9;194.4;228.1
CO;uur;�g/m�;20150107 02:00;20150107 03:00;412;385;249;197.34;143.79;213.28;212.1;232.3;244.9;216.5;185;199.2
CO;uur;�g/m�;20150107 03:00;20150107 04:00;375;383;214;200.6;143.59;228.43;190.5;212.2;226.6;223;169.6;213.3
CO;uur;�g/m�;20150107 04:00;20150107 05:00;528;426;300;211.57;148;173.36;251.2;268.7;222.4;248;194.6;246.4
CO;uur;�g/m�;20150107 05:00;20150107 06:00;678;455;391;229.47;151.62;218.19;254.5;378;;263.8;196.2;259.4
CO;uur;�g/m�;20150107 06:00;20150107 07:00;596;511;521;273.37;159.45;298.13;323;467.2;;294.9;200.4;345.7
CO;uur;�g/m�;20150107 07:00;20150107 08:00;838;561;636;291.16;175.82;607.76;476.8;647.9;;308.8;206.8;456.7
CO;uur;�g/m�;20150107 08:00;20150107 09:00;870;685;620;352.95;197.51;648.09;632.2;700.1;;301.9;190.7;432.8
CO;uur;�g/m�;20150107 09:00;20150107 10:00;626;475;490;343.86;212.47;524.47;561.9;704.7;;320.2;197.9;492.1
CO;uur;�g/m�;20150107 10:00;20150107 11:00;603;496;498;348.51;231.95;408.69;443.8;519.4;;329.7;276.5;425.5
CO;uur;�g/m�;20150107 11:00;20150107 12:00;528;475;419;404.56;368.81;431.16;435.7;449.4;;351.9;272.1;384.2
CO;uur;�g/m�;20150107 12:00;20150107 13:00;537;467;382;331.6;299.52;401.9;458.3;565.3;;337.8;321.7;380.4
CO;uur;�g/m�;20150107 13:00;20150107 14:00;495;462;354;303.92;225.82;392.81;310.9;444.2;;335.3;301.9;330.3
CO;uur;�g/m�;20150107 14:00;20150107 15:00;517;446;340;290.67;247.71;306.18;310.8;450.4;;308.7;260.2;319.5
CO;uur;�g/m�;20150107 15:00;20150107 16:00;558;446;372;289.68;259.36;329.17;344.8;370.9;;304.7;269;341.8
CO;uur;�g/m�;20150107 16:00;20150107 17:00;665;470;423;308.66;224.32;422.48;407.8;513.7;;315.8;298.1;351.5
CO;uur;�g/m�;20150107 17:00;20150107 18:00;780;520;491;335.85;214.07;418.2;417.2;527.8;;347;634.8;362.1
CO;uur;�g/m�;20150107 18:00;20150107 19:00;718;500;407;332.69;203.03;385.18;394.7;463.1;;338.2;1132.1;349.8
CO;uur;�g/m�;20150107 19:00;20150107 20:00;643;485;369;334.76;224.92;319.76;360.1;374.5;;334.5;758.9;342.2
CO;uur;�g/m�;20150107 20:00;20150107 21:00;586;443;320;323.49;207.85;285.69;345.1;346.4;;340.7;1032.2;345.8
CO;uur;�g/m�;20150107 21:00;20150107 22:00;495;432;298;326.76;197.41;237.62;318.8;327.8;;363.1;1343.1;342.4
CO;uur;�g/m�;20150107 22:00;20150107 23:00;470;419;285;317.26;189.37;264.06;295.1;312.7;;346.5;1153.8;310.8
CO;uur;�g/m�;20150107 23:00;20150108 00:00;406;412;279;294.49;191.45;211.08;251;273.1;;330;1274.5;308.4
CO;uur;�g/m�;20150108 00:00;20150108 01:00;424;432;274;266.83;156.79;216.74;233.4;238.1;;292.4;1250.3;298.4
CO;uur;�g/m�;20150108 01:00;20150108 02:00;396;434;277;262.49;154.03;213.59;234.9;250.9;;319.6;797;280.1
CO;uur;�g/m�;20150108 02:00;20150108 03:00;405;451;280;264.17;156.54;224.56;237.4;246.2;;318.7;607.7;252.3
CO;uur;�g/m�;20150108 03:00;20150108 04:00;383;444;287;259.73;156.04;240.24;222;244.2;;307.5;318.1;244.6
CO;uur;�g/m�;20150108 04:00;20150108 05:00;406;447;252;251.03;160.36;245.36;209.5;243.3;;306.6;255.1;245.8
CO;uur;�g/m�;20150108 05:00;20150108 06:00;380;421;251;243.81;157.35;264.48;192.9;241.8;;288.7;250.2;249.3
CO;uur;�g/m�;20150108 06:00;20150108 07:00;434;434;296;214.15;147.81;295.41;235.9;279.6;;290.4;243.8;256.1
CO;uur;�g/m�;20150108 07:00;20150108 08:00;470;445;340;218.79;164.88;349.86;309.8;388.8;;330.8;244.8;299.9
CO;uur;�g/m�;20150108 08:00;20150108 09:00;511;475;328;224.43;170.8;382.36;413.6;447.6;;319.7;228.1;344.6
CO;uur;�g/m�;20150108 09:00;20150108 10:00;485;448;302;218.3;170.9;337.63;358;489.8;;315.3;216.9;343.7
CO;uur;�g/m�;20150108 10:00;20150108 11:00;452;452;321;205.25;171.1;329.48;300;419.1;;321;219.1;283.2
CO;uur;�g/m�;20150108 11:00;20150108 12:00;603;495;343;204.06;163.17;342.85;296.7;404.3;;300.3;215;316.5
CO;uur;�g/m�;20150108 12:00;20150108 13:00;708;540;412;231.94;181.54;347.24;290.6;384.5;;296.8;212.6;261.1
CO;uur;�g/m�;20150108 13:00;20150108 14:00;829;587;430;205.45;240.78;388.1;301;317.7;;276;199.3;221
CO;uur;�g/m�;20150108 14:00;20150108 15:00;527;436;296;161.65;170.2;403.36;197.6;287.8;;294.1;182.7;193.7
CO;uur;�g/m�;20150108 15:00;20150108 16:00;606;422;349;149.49;100.21;458.33;324;323.1;;291.9;168.6;193.5
CO;uur;�g/m�;20150108 16:00;20150108 17:00;801;437;372;152.75;116.07;410.47;268;395.3;;313.4;188.8;200.3
CO;uur;�g/m�;20150108 17:00;20150108 18:00;840;451;412;171.73;165.08;515.17;333.5;386.4;;290.7;176.5;248.5
CO;uur;�g/m�;20150108 18:00;20150108 19:00;649;484;333;185.67;165.48;486.85;296.1;336.9;;289.3;175;218.6
CO;uur;�g/m�;20150108 19:00;20150108 20:00;493;424;259;189.43;168.29;403.05;265.9;271.9;;268.8;178.1;210.3
CO;uur;�g/m�;20150108 20:00;20150108 21:00;460;425;225;187.95;142.88;327.39;232.5;265.4;;285.9;197.7;209.5
CO;uur;�g/m�;20150108 21:00;20150108 22:00;453;442;256;181.22;129.33;385.8;221.9;261.7;;271.6;188.1;235.6
CO;uur;�g/m�;20150108 22:00;20150108 23:00;380;426;257;188.54;143.08;387.58;202.6;236.3;;290.4;196.6;201.4
CO;uur;�g/m�;20150108 23:00;20150109 00:00;389;424;252;185.34;137.09;316.83;212.5;223.4;;263.3;180.5;192.7
CO;uur;�g/m�;20150109 00:00;20150109 01:00;359;415;222;184.36;177.08;314.1;222.4;239.9;;260.9;184.9;197.1
CO;uur;�g/m�;20150109 01:00;20150109 02:00;382;452;261;184.09;200.32;342.23;234;234.9;;275.8;200.2;210.3